HAZ814 ZSPD-RJTT

Flight info

Callsign HAZ814
Flight time N/A
Altitude 31000
Route LAM82D/16R LAMEN A593 SADLI Y590 BEDAR Y591 FUE Y23 ARTIC Y71 XAC
Aircraft A321/M-SDE3FGHIRWY/LB1

Departure

Time N/A
Airport Shanghai Pudong International Airport (ZSPD)

Arrival

Time 2026-04-30 14:57
Airport Tokyo Haneda International Airport (RJTT)
Time Latitude Longitude Altitude Speed Heading
2026-04-30 14:41 34.90214 140.20414 13019 ft 310 kts 59°
2026-04-30 14:41 34.91471 140.22435 12939 ft 297 kts 46°
2026-04-30 14:42 34.93064 140.24124 12662 ft 300 kts 37°
2026-04-30 14:42 34.94732 140.25638 12334 ft 298 kts 36°
2026-04-30 14:42 34.96401 140.27128 11998 ft 297 kts 36°
2026-04-30 14:42 34.98074 140.28594 11688 ft 295 kts 32°
2026-04-30 14:43 34.99951 140.29533 11374 ft 291 kts
2026-04-30 14:43 35.01924 140.29528 11065 ft 287 kts 344°
2026-04-30 14:43 35.03739 140.28630 10747 ft 280 kts 321°
2026-04-30 14:43 35.05123 140.27019 10440 ft 273 kts 300°
2026-04-30 14:44 35.05961 140.24982 10139 ft 268 kts 286°
2026-04-30 14:44 35.06658 140.22874 9808 ft 268 kts 287°
2026-04-30 14:44 35.07357 140.20774 9472 ft 267 kts 287°
2026-04-30 14:44 35.08059 140.18683 9136 ft 266 kts 287°
2026-04-30 14:45 35.08765 140.16584 8811 ft 268 kts 287°
2026-04-30 14:45 35.09470 140.14482 8474 ft 267 kts 287°
2026-04-30 14:45 35.10174 140.12388 8151 ft 267 kts 287°
2026-04-30 14:45 35.10876 140.10304 7981 ft 265 kts 287°
2026-04-30 14:46 35.11574 140.08218 7979 ft 267 kts 287°
2026-04-30 14:46 35.12273 140.06118 7984 ft 267 kts 287°
2026-04-30 14:46 35.12974 140.04014 7979 ft 267 kts 287°
2026-04-30 14:46 35.13449 140.02592 7981 ft 267 kts 287°
2026-04-30 14:47 35.14381 139.99804 7949 ft 269 kts 287°
2026-04-30 14:47 35.15088 139.97690 7693 ft 268 kts 287°
2026-04-30 14:47 35.15791 139.95589 7451 ft 268 kts 287°
2026-04-30 14:47 35.16491 139.93490 7206 ft 265 kts 286°
2026-04-30 14:48 35.17183 139.91403 6977 ft 264 kts 287°
2026-04-30 14:48 35.17872 139.89322 6724 ft 264 kts 287°
2026-04-30 14:48 35.18559 139.87249 6483 ft 263 kts 287°
2026-04-30 14:48 35.19247 139.85180 6224 ft 263 kts 286°
2026-04-30 14:49 35.20017 139.83153 6038 ft 265 kts 301°
2026-04-30 14:49 35.21305 139.81521 5988 ft 271 kts 324°
2026-04-30 14:49 35.22433 139.80785 5941 ft 274 kts 340°
2026-04-30 14:49 35.24221 139.80183 5809 ft 265 kts 346°
2026-04-30 14:50 35.27664 139.79099 5449 ft 247 kts 346°
2026-04-30 14:50 35.29309 139.78586 5217 ft 240 kts 349°
2026-04-30 14:51 35.32380 139.78849 4708 ft 209 kts 25°
2026-04-30 14:51 35.33627 139.79647 4461 ft 198 kts 40°
2026-04-30 14:51 35.35810 139.81623 3950 ft 194 kts 42°
2026-04-30 14:52 35.36891 139.82598 3578 ft 192 kts 42°
2026-04-30 14:52 35.39013 139.84514 2821 ft 189 kts 42°
2026-04-30 14:52 35.40061 139.85461 2440 ft 185 kts 41°
2026-04-30 14:53 35.42191 139.86846 2017 ft 170 kts 12°
2026-04-30 14:53 35.43373 139.86882 2011 ft 170 kts
2026-04-30 14:54 35.45622 139.86428 1942 ft 163 kts 334°
2026-04-30 14:54 35.47552 139.85063 1594 ft 157 kts 332°
2026-04-30 14:55 35.49420 139.83740 1195 ft 152 kts 333°
2026-04-30 14:55 35.50325 139.83100 982 ft 148 kts 332°
2026-04-30 14:55 35.52044 139.81881 588 ft 139 kts 330°
2026-04-30 14:56 35.53685 139.80717 215 ft 135 kts 331°
2026-04-30 14:56 35.55190 139.79648 24 ft 87 kts 330°
2026-04-30 14:57 35.55560 139.79386 25 ft 36 kts 330°
2026-04-30 14:57 35.55801 139.79085 23 ft 17 kts 300°
2026-04-30 14:58 35.55911 139.78882 23 ft 15 kts 325°
2026-04-30 14:58 35.56005 139.78815 24 ft 18 kts 329°
2026-04-30 14:58 35.56227 139.78658 23 ft 21 kts 331°
2026-04-30 14:59 35.56380 139.78465 25 ft 10 kts 243°
2026-04-30 15:00 35.56203 139.78093 23 ft 17 kts 240°
2026-04-30 15:00 35.56099 139.77872 24 ft 17 kts 240°
2026-04-30 15:01 35.55971 139.77601 23 ft 18 kts 240°
2026-04-30 15:01 35.55905 139.77464 25 ft 18 kts 239°
2026-04-30 15:01 35.55763 139.77457 26 ft 9 kts 150°
2026-04-30 15:02 35.55721 139.77486 24 ft 5 kts 151°
2026-04-30 15:02 35.55695 139.77509 27 ft 4 kts 122°
2026-04-30 15:03 35.55767 139.77669 25 ft 0 kts 59°